Regional Weather Roundup
Issued by NWS Wakefield, VA

Home | Current Version | Previous Version | Graphics & Text | Print | Product List | Glossary On
Versions: 1 2 3 4 5 6 7 8 9 10 11 12 13 14 15 16 17 18 19 20 21 22 23 24 25 26 27
000
ASUS41 KAKQ 222315
RWRAKQ

REGIONAL WEATHER ROUNDUP
NATIONAL WEATHER SERVICE WAKEFIELD VA
600 PM EST SUN JAN 22 2017

Note: "fair" indicates few or no clouds below 12,000 feet with no
significant weather and/or obstructions to visibility. * = Denotes
station may not report precipitation (e.g., rain,snow,etc.),
thunder or fog.

VAZ042-051-052>054-056-230000-
NORTHERN VIRGINIA

CITY           SKY/WX    TMP DP  RH WIND       PRES   REMARKS
WASH NATIONAL  LGT RAIN  50  50 100 NE9       29.63S
DULLES         CLOUDY    49  47  93 N5        29.63R FOG
FORT BELVOIR   CLOUDY    50  48  93 VRB3      29.62S
QUANTICO       CLOUDY    50  50 100 NE9       29.63S VSB 1
FREDERICKSBRG* CLOUDY    50  50 100 CALM      29.61R
STAFFORD*      CLOUDY    49  49 100 NE3       29.66R
WARRENTON      CLOUDY    50  47  88 N7        29.62R
CULPEPER*      DRIZZLE   50  50  99 N3        29.63R
MANASSAS*      CLOUDY   N/A N/A N/A N7        29.63R FOG
LEESBURG*      CLOUDY    50  50 100 N5        29.64S
WINCHESTER     CLOUDY    45  43  93 NE3       29.63R FOG
FRONT ROYAL*   CLOUDY    45  45 100 NE5       29.62R
LURAY*         CLOUDY    46  46 100 NE9       29.61R FOG
$$

VAZ048-049-060>072-079>083-230000-
CENTRAL AND SOUTH CENTRAL VIRGINIA

CITY           SKY/WX    TMP DP  RH WIND       PRES   REMARKS
RICHMOND       CLOUDY    50  49  96 NE6       29.61R
CHESTERFIELD*  CLOUDY    52  36  54 CALM      29.63R
PETERSBURG*    LGT RAIN  50  48  93 NE3       29.63R
HANOVER        CLOUDY    50  47  89 NE5       29.63R
TAPPAHANNOCK*  CLOUDY    50  50 100 N6        29.61R FOG
QUINTON*       CLOUDY    49  49 100 NE3       29.61R FOG
CHARLOTTSVILLE CLOUDY    52  50  93 NE8       29.60R FOG
GORDONSVILLE*  CLOUDY    50  49  99 NE3       29.61R
ORANGE*        DRIZZLE   50  50 100 CALM      29.63R
LOUISA*        CLOUDY    54  52  94 NE5       29.60R
BUMPASS*       CLOUDY    49  49 100 NE3       29.61R
FARMVILLE*     DRIZZLE   52  52 100 CALM      29.60R
CREWE*         CLOUDY    50  50 100 CALM      29.62R
FORT PICKETT*  CLOUDY    50  47  88 CALM      29.61S
CHASE CITY*    CLOUDY    51  50  95 CALM      29.59F
CLARKSVILLE*   CLOUDY    52  52 100 E3        29.59S
SOUTH HILL*    CLOUDY    51  51 100 CALM      29.65F
LAWRENCEVILLE* CLOUDY    51  50  97 CALM      29.61S
EMPORIA*       CLOUDY    50  50 100 CALM      29.62F FOG
$$

VAZ088>098-230000-
SOUTHEAST VIRGINIA

CITY           SKY/WX    TMP DP  RH WIND       PRES   REMARKS
NORFOLK        CLOUDY    49  48  97 N5        29.60R FOG
VIRGINIA BEACH CLOUDY    49  47  93 NW10      29.60R FOG
NORFOLK NAVAL  CLOUDY    50  48  93 N7        29.62R
WEST POINT*    CLOUDY    49  49  99 CALM      29.62R
SALUDA*        CLOUDY    47  47 100 N3        29.60R
NEWPORT NEWS   CLOUDY    50  49  96 NE5       29.61R FOG
LANGLEY AFB    CLOUDY    50  50 100 NE5       29.60R
FORT EUSTIS    CLOUDY    50  49  94 CALM      29.59R
WILLIAMSBURG*  CLOUDY    52  52 100 CALM      29.62R
HR EXEC AP*    CLOUDY    52  48  87 CALM      29.60R
FRANKLIN*      CLOUDY    51  50  96 CALM      29.63R
US460-WAKEFLD  CLOUDY    51  50  96 W3        29.63R FOG
$$

VAZ020-022-025-037-045-230000-
WEST CENTRAL AND SOUTHWEST VIRGINIA

CITY           SKY/WX    TMP DP  RH WIND       PRES   REMARKS
STAUNTON*      RAIN      47  46  97 N3        29.62R
WAYNESBORO*    CLOUDY    46  45  96 NW3       29.60R
HOT SPRINGS VA HVY RAIN  46  46 100 E10       29.54F VSB<1/4
LYNCHBURG      CLOUDY    51  50  96 E5        29.58F FOG
DANVILLE       CLOUDY    52  52 100 E7        29.55F FOG
SOUTH BOSTON*  CLOUDY    52  51  95 NE3       29.58F
MARTINSVILLE   CLOUDY    51  50  96 E8        29.56F FOG
ROANOKE        CLOUDY    52  51  97 SE5       29.57F FOG
BLACKSBURG     CLOUDY    50  50  99 E8        29.55F
DUBLIN*        CLOUDY    51  51 100 SE6       29.53F
MARION*        CLOUDY    53  51  94 E8G17     29.50F
HILLSVILLE*    CLOUDY    49  49 100 CALM      29.49F FOG
RICHLANDS*     CLOUDY    54  49  83 SE15G22   29.44F
WISE*          RAIN      57  48  72 SE5       29.42F
ABINGDON*      CLOUDY    60  49  67 E5        29.41F
$$

MDZ021>025-VAZ099-100-230000-
SOUTHERN MARYLAND AND THE DELMARVA PENINSULA

CITY           SKY/WX    TMP DP  RH WIND       PRES   REMARKS
PATUXENT RIVER CLOUDY    47  47 100 N9        29.61S FOG
BAY BRIDGE APT CLOUDY    48  48 100 NE6       29.64R FOG
LEONARDTOWN    CLOUDY    46  45  93 NE3       29.62S
DOVER          CLOUDY    48  48 100 N10       29.63S
GEORGETOWN     CLOUDY    49  48  97 NE12      29.62F FOG
EASTON         CLOUDY    50  48  93 E12       29.66F FOG
CAMBRIDGE      CLOUDY    48  46  93 NE8       29.61S
SALISBURY      LGT RAIN  50  49  96 NE15      29.59F FOG
OCEAN CITY     LGT RAIN  46  46 100 NE18G26   29.61F FOG
WALLOPS ISLAND CLOUDY    50  50 100 N10       29.58F
ACCOMACK*      CLOUDY    51  50  98 N5        29.56F FOG
$$

NCZ012>017-030>032-230000-
NORTH CENTRAL AND EASTERN NORTH CAROLINA

CITY           SKY/WX    TMP DP  RH WIND       PRES   REMARKS
ROANOKE RAPIDS CLOUDY    52  52 100 CALM      29.59F FOG
RALEIGH        FOG       54  53  97 NE7       29.56F VSB 1/4
ELIZABETH CITY CLOUDY    52  51  97 N7        29.60S FOG
AHOSKIE*       DRIZZLE   51  51  99 N5        29.60F
EDENTON*       CLOUDY    56  55  96 N6        29.60S FOG
CURRITUCK*     CLOUDY    51  51 100 N3        29.62R
KILL DEVIL HLS NOT AVBL
MANTEO         FOG       49  49 100 NE5       29.60R VSB 1
CAPE HATTERAS  CLOUDY    58  55  90 NW5       29.58R FOG
TARBORO*       NOT AVBL
GOLDSBORO      CLOUDY    58  58 100 NE5       29.54F
WASHINGTON     CLOUDY    58  56  94 N5          N/A
GREENVILLE     CLOUDY    57  55  94 N6        29.61F
NEW BERN       CLOUDY    60  57  89 E3        29.56F
WILMINGTON     CLOUDY    60  59  96 CALM      29.53F
$$

VAZ048-230000-
ELSEWHERE

CITY           SKY/WX    TMP DP  RH WIND       PRES   REMARKS
HARRISBURG PA  CLOUDY    45  45 100 E5        29.66R FOG
BALTIMORE      LGT RAIN  49  49 100 NE10      29.64R
ANNAPOLIS      CLOUDY    49  47  93 NE8       29.62F
ANDREWS AFB    CLOUDY    49  49  99 NE9       29.62R
PHILADELPHIA   CLOUDY    49  46  90 NE13G23   29.69R FOG
HENDERSON NC   CLOUDY    50  49  98 CALM      29.59F FOG
GREENSBORO     DRIZZLE   52  52 100 E10       29.50F FOG
ROCKY MOUNT    CLOUDY    55  55 100 N6        29.57F
$$

VAZ100-230000-
MARINE

STATION/POSITION TIME  TEMP    WIND        PRES    WAVE   SWELL
                       AIR SEA DIR/SP/G            HT/PER HT/PER
                 (UTC) (F)     (DEG/KT/KT) (MB)    (FT/S) (FT/S)
CAPE MAY NJ      2248   47 43   20/  3/  5   N/A
LEWES DE         2248   45 42   20/  9/ 12   N/A
OCEAN-CITY-INLET 2248   45 43   30/ 10/ 15   N/A
WACHAPREAGUE VA  2248   51 48   30/  9/ 11   N/A
THOMAS POINT MD  2300   45 40   30/ 13/ 13   N/A
GOOSES REEF MD   2250   44      10/  8/ 12 1003.8S
COVE POINT MD    2248   43     350/ 13/ 14   N/A
SOLOMONS ISLAND  2248   47 42   10/  5/  8   N/A
BISHOPS HEAD MD  2248   47 45   20/  7/ 10   N/A
PINEY POINT MD   2242           60/  9/ 12   N/A
POTOMAC MD       2250   46      20/ 14/ 16 1001.4F
CAMBRIDGE MD     2248   48 40   50/  9/ 11   N/A
LEWISETTA VA     2248   46 45   40/  3/  5   N/A
RAPPAHANNOCK LGT 2242          340/ 12/ 13   N/A
STINGRAY PT      2250   44      20/ 12/ 14 1002.7R
YORK RVR RNG VA  2248   47     320/  5/  5   N/A
YORKTOWN VA      2248   49 44   50/  4/  4   N/A
JAMESTOWN VA     2250   49      30/  2/  4   N/A
DOMINION TERM VA 2248   50      10/  2/  3   N/A
CHES BAY BRIDGE  2248   46 44  340/  9/ 11   N/A
CAPE HENRY VA    2248   46     320/ 11/ 13   N/A
WILLOUBY STN VA  2242   49     360/  8/  9   N/A
S CRANEY ISL VA  2248   49      10/  3/  4   N/A
CAPE HENRY BUOY  2242      48                N/A     4/13   2/13
OFFSHORE WE BUOY 2251      48                N/A     4/ 6   2/13
64NM E OF VA BCH 2250   51 56  280/ 12/ 14 1000.9F   5/11   3/11
DUCK PIER NC     2248   47 46  350/ 10/ 12   N/A
44100 DUCK FRF   2235      48                N/A     4/13   2/13
44056 DUCK FRF   2230      47                N/A     3/14   2/14
OREGON INLET NC  2242   48 51  350/  8/ 10   N/A
HATTERAS NC      2248   57 54  290/  6/  6   N/A
DIAMOND SHLS NC  2250   65 71  300/ 12/ 14 1001.2R   4/11   3/11
CAPE LOOKOUT NC  2300   60     360/  5/  6 1000.6F
$$




USA.gov is the U.S. government's official web portal to all federal, state and local government web resources and services.